{"data":{"norad_id":57105,"epoch":"2026-05-24T21:18:59.491584Z","epoch_age_seconds":84952,"freshness":"FRESH","line1":"1 57105U 23090E   26144.88818856 -.00001084  00000+0 -29894-4 0  9991","line2":"2 57105  43.0060 211.4268 0000057 142.0218 218.0638 15.27567738161981","mean_motion":15.27567738,"eccentricity":5.7e-6,"inclination_deg":43.006,"raan_deg":211.4268,"arg_perigee_deg":142.0218,"mean_anomaly_deg":218.0638,"bstar":-2.9894e-5,"rev_number":16198,"period_min":94.267505406035,"perigee_km":483.04670415446,"apogee_km":483.12492209453,"semimajor_km":6861.2228131245,"source":"CELESTRAK","updated_at":"2026-05-25T13:38:18.239887Z"}}